Flag for U.S.A. Weather past 2 weeks in Jacksonville, North Carolina, U.S.A.

Now
44 °F

Sunny.


Feels Like: 38 °F
Forecast: 27 / 43 °F
Wind: 12 mph from North

Location: Jacksonville - New River

Current Time: Jan 28, 2015 at 3:18:38 PM

Latest Report: Jan 28, 2015 at 2:56 PM


Visibility: 10 mi

Pressure: 30.20 "Hg

Humidity: 28%

Dew point: 13 °F

Location of JacksonvilleLocation

Historic Weather in Jacksonville — Graph

°F

Jacksonville temperature yesterday

Maximum temperature yesterday: 46 °F (at 12:56 AM)
Minimum temperature yesterday: 28 °F (at 10:56 PM)
Average temperature yesterday: 38 °F

Past Weeks' High & Low Weather Summary

 TemperatureHumidityPressure
High67 °F (Jan 24, 4:56 AM)97% (Jan 16, 2:56 AM)30.38 "Hg (Jan 16, 2:56 AM)
Low28 °F (Jan 27, 10:56 PM)26% (Jan 19, 1:56 PM)29.49 "Hg (Jan 24, 7:03 AM)
Average45 °F74%30.02 "Hg
* Reported Jan 13 1:56 PM — Jan 28 1:56 PM, Jacksonville, Weather by CustomWeather, © 2014

Note: Actual official high and low records may vary slightly from our data, if they occured in-between our weather recording intervals... More about our weather records

Advertising

Jacksonville weather history for previous 24 hours

 ConditionsComfort  
Time TempWeatherWind HumidityBarometerVisibility
1:56 PM
Jan 28
44 °FSunny.18 mph29%30.19 "Hg10 mi
12:56 PM42 °FSunny.14 mph36%30.20 "Hg10 mi
11:56 AM41 °FSunny.15 mph41%30.22 "Hg10 mi
10:56 AM38 °FSunny.15 mph46%30.22 "Hg10 mi
9:56 AM35 °FSunny.15 mph52%30.21 "Hg10 mi
8:56 AM32 °FSunny.12 mph59%30.19 "Hg10 mi
7:56 AM29 °FSunny.13 mph64%30.16 "Hg10 mi
6:56 AM28 °FClear.10 mph66%30.13 "Hg10 mi
5:56 AM28 °FClear.12 mph69%30.10 "Hg10 mi
4:56 AM29 °FClear.12 mph69%30.07 "Hg10 mi
3:56 AM30 °FClear.13 mph75%30.04 "Hg10 mi
2:56 AM31 °FClear.12 mph76%30.02 "Hg10 mi
1:56 AM30 °FClear.5 mph85%30.00 "Hg10 mi
12:56 AM29 °FClear.7 mph85%29.98 "Hg10 mi
11:56 PM
Jan 27
29 °FClear.3 mph89%29.97 "Hg8 mi
10:56 PM28 °FClear.No wind93%29.95 "Hg7 mi
9:56 PM29 °FClear.No wind93%29.93 "Hg9 mi
8:56 PM31 °FClear.No wind89%29.92 "Hg10 mi
7:56 PM33 °FClear.No wind85%29.91 "Hg10 mi
6:56 PM37 °FPassing clouds.5 mph70%29.89 "Hg10 mi
5:56 PM39 °FOvercast.9 mph65%29.87 "Hg10 mi
4:56 PM39 °FOvercast.12 mph65%29.84 "Hg10 mi
3:56 PM39 °FOvercast.13 mph67%29.82 "Hg10 mi
Weather by CustomWeather, © 2014

See weather overviewHow to use our weather pages